Weather in Olgynka

Ukraine / Donetsk Region     47°41′39″N   37°30′12″E
temp.,
°C
wind,
m/s
gust,
m/s
humid.,
%
clouds,
%
prec.,
mm/h
press.,
hPa
HPBL,
m
14 may, fri
fri1400:00+13ese499230 0.0 1012140
03:00+13e5149330 0.0 1011250
06:00+14ese51390100 0.0 1010297
09:00+18se6873100 0.1 1010375
12:00+23se5656100 0.0 1010650
15:00+25s564699 0.0 10101180
18:00+22s465731 0.0 1010239
21:00+15ssw457840 0.1 101153
15 may, sat
sat1500:00+15wsw33800 0.3 101134
03:00+14w4785100 0.3 1013111
06:00+14nw35825 0.0 101399
09:00+20nnw11555 0.0 1014446
12:00+24ssw124013 0.0 10141261
15:00+25ssw243833 0.0 10132201
18:00+24ssw2349100 0.0 1013241
21:00+18sw3367100 0.0 101337
16 may, sun
sun1600:00+16wnw3472100 0.0 101343
03:00+15n33755 0.0 101327
06:00+16nne357469 0.0 101284
09:00+21ene4563100 0.0 1011373
12:00+26ne345156 0.0 10101336
15:00+28e444863 0.0 10081958
18:00+24e69597 0.0 1007598
21:00+18e487373 0.0 1007134
17 may, mon
mon1700:00+17e487946 0.0 1006130
03:00+16ese51484100 0.0 1005258
06:00+15e3672100 0.0 1006113
09:00+19ese7106286 0.0 1005351
12:00+23s81058100 0.1 1006996
15:00+24sse71060100 0.1 1006827
18:00+22sse45689 0.0 1007632
21:00+17s4794100 0.6 1009162
18 may, tue
tue1800:00+16ssw2396100 1.9 100960
03:00+16s229345 2.0 101021
06:00+15w35913 0.0 1011130
09:00+19wsw457519 0.0 1011408
12:00+24sw45480 0.0 10121491
15:00+25sw56460 0.0 10122035
18:00+23wsw45540 0.0 1012574
21:00+16sw4880100 0.0 1013141